Погода в Жарыке

Погода в Жарыке : погода сейчас, прогноз погоды и архив. Всё, что Вы хотите узнать о погоде в Жарыке!

Поиск расширенной информации на нашем сайте:

Другие новости

Новости СМИ2

Главная страница сайта

Новости сайта

02.10.2013

Напоминаем, что на нашем новом сайте вы можете получить высокодетализированные прогнозы погоды по пунктам России, СНГ и мира (включающие важные для авиации метеовеличины, такие как направление и скорость ветра, видимость, явления погоды, количество и форма облачности, нижняя и верхняя граница облачности), а также ознакомиться с разнообразными материалами по авиационной метеорологии и подборкой полезных ссылок на эту тему.

Сайт Метеоцентр.Азия посвящён разработке технологий оптимизации авиаметеорологического обслуживания, включая проектирование и перспективное создание нескольких автоматизированных авиаметеорологических систем:
- система выпуска высокодетальных прогностических карт явлений погоды для нижнего воздушного пространства по России и ближнему зарубежью;
- система верификации прогнозов TAF (выпускаемых синоптиками официальных АМСГ РФ и ближнего зарубежья) и AUTOTAF (выпускаемых сайтом Метеоцентр.Азия) - выявление ошибок, онлайн-сопоставление с фактической погодой METAR, автоматическое внесение коррективов в прогнозы при резком отклонении фактической погоды от прогноза, подсчёт оправдываемости прогнозов по элементам и в целом;
- система обработки, анализа и отображения авиаметеорологической информации для применения провайдерами метеорологической информации.

Рекомендуем: Комерческая недвижимость в крыму продажа коммерческой недвижимости в крыму.

Погода в Жарыке - сегодня

Время (UTC), дата Ветер
(°,м/с) 
Видим.   Явления Облачность Т
(°С)
Тd
(°С)
f(%) Тe
(°С)
Pmin
(гПа)
dP
(гПа)
Po
(мм)
O2
(г/м3)
Тmin Tmax R s Состояние
почвы
12 24.02.17 110 (В) 20000 м    6/0 верхняя 
[Ci fib]
-3.9 -11.7 55 -5  1022.1  -0.1  706  290           
15 24.02.17 160 (Ю) н/о    8/0 средняя, верхняя 
[Ac lent|Ci fib]
-5.9 -11.9 63 -10  1022.3  -0.4  706  292    -2.8       
18 24.02.17 160 (Ю) н/о    10/0 средняя 
[Ac As]
-6.4 -11.2 69 -10  1021.9  -0.5  705  292    -2.8       
21 24.02.17 140 (ЮВ) н/о    8/0 верхняя 
[Ci sp]
-6 -10.7 69 -9  1021.9  0.1  705  292           
00 25.02.17 140 (ЮВ) н/о    ясно 
-6.1 -10.4 72 -6  1022.3  0.3  706  292           
03 25.02.17 140 (ЮВ) 20000 м    9/0 верхняя 
[Ci sp]
-3.3 -8.6 67 -3  1021.6  0.2  706  289        49  неравномерный
сухой снег
100% 
06 25.02.17 140 (ЮВ) 20000 м    9/0 верхняя 
[Ci sp]
-1.3 -6.6 67 -2  1021.2  0.2  706  286  -6.4         
09 25.02.17 140 (ЮВ) 20000 м    8/0 верхняя 
[Ci sp]
+0.3 -6 63 1021  0.3  706  285           
12 25.02.17 180 (Ю) 20000 м    10/0 средняя 
[As op]
-0.1 -2.7 83 -2  1022.3  1.1  707  285           
15 25.02.17 180 (Ю) н/о    10/10 600 м 
[St]
-0.9 -3.3 84 -2  1024.4  1.7  708  287    +0.3       
18 25.02.17 230 (ЮЗ) н/о  туман  ?/?  
-1.1 -3.6 83 -1  1025.7  1.1  709  287    +0.3       
21 25.02.17 230 (ЮЗ) н/о  туман  ?/?  
-1.9 -4.3 84 -3  1027.3  1.3  710  289           
00 26.02.17 230 (ЮЗ) н/о  {туман}  10/10 600 м 
[St]
-2.9 -5.5 82 -4  1028.8  1.1  711  290           
03 26.02.17 230 (ЮЗ) 10 км  слаб. ливневой снег  10/10 600 м кучево-дожд. 
[Cb cap]
-3.9 -6.8 80 -5  1030.7  1.4  712  292      49  неравномерный
сухой снег
100% 
06 26.02.17 180 (Ю) 20000 м  {ливн. осадки}  10/10 600 м кучево-дожд. 
[Cb cap]
-2.1 -5.5 77 -3  1031.2  713  290  -3.9       
09 26.02.17 230 (ЮЗ) 20000 м    10/10 600 м кучево-дожд. 
[Cb cap]
-0.9 -5 74 -2  1031.2  0.3  713  289           
12 26.02.17 230 (ЮЗ) 20000 м    10/10 600 м кучево-дожд. 
[Cb cap]
-1.6 -5.9 72 -3  1031.4  713  290           
15 26.02.17 180 (Ю) н/о    10/10 600 м кучево-дожд. 
[Cb cap]
-2.9 -7.3 72 -4  1031.5  -0.3  713  291    -0.9  0.4     
18 26.02.17 140 (ЮВ) н/о    8/8 600 м кучево-дожд. 
[Cb cap]
-5.3 -9.7 71 -9  1030.6  -1.5  712  293    -0.9  0.4     
21 26.02.17 140 (ЮВ) н/о    ясно 
-6.3 -10.6 71 -10  1029.3  -1.5  710  294           
00 27.02.17 090 (В) н/о    ясно 
-7.7 -12.1 71 -9  1028.8  -0.9  710  295           
03 27.02.17 140 (ЮВ) 20000 м    8/8 600 м кучево-дожд. 
[Cb cap]
-6.2 -10.5 72 -9  1028.6  0.3  710  294        49  неравномерный
сухой снег
100% 
06 27.02.17 140 (ЮВ) 20000 м  позёмок  9/0 средняя 
[Ac lent]
-3.3 -7.8 71 -8  1026.4  -1.2  709  290  -7.7         
09 27.02.17 160 (Ю) 20000 м  позёмок  8/0 средняя, верхняя 
[Ac lent|Ci sp]
-1.3 -5.9 71 -6  1026.1  0.3  709  288           
12 27.02.17 160 (Ю) 10  20000 м    8/0 верхняя 
[Ci sp]
-1.8 -6.6 70 -7  1027.1  0.8  710  289           
Время (UTC), дата Ветер
(°,м/с) 
Видим.   Явления Облачность Т
(°С)
Тd
(°С)
f(%) Тe
(°С)
Pmin
(гПа)
dP
(гПа)
Po
(мм)
O2
(г/м3)
Тmin Tmax R s Состояние
почвы

Для получения пояснительной информации подведите курсор к названию столбца.

ПОГОДА в Жарыке - архив

Всё, что Вы хотите узнать о погоде в Жарыке - удобно и подробно!

Выберите нужную дату (начиная с 1 января 2015* года) и нажмите кнопку "Найти".
Будут отображены архивные сводки погоды по пункту Жарык, начиная с указанной даты.


Отображать данные в формате CSV (для использования в таблицах Excel)


Внимание! Наш архив погоды предназначен исключительно для личного некоммерческого использования в познавательных целях. Если Вам необходимы официальные справки о состоянии погоды (для производственных, юридических, коммерческих и т.п. целей), обращайтесь в органы Росгидромета.

*Примечание: данная дата относится к архиву по метеостанциям СССР (Россия, СНГ, Балтия).
Архив по метеостанциям Зарубежной Европы и Азии (кроме Китая) хранится 10 дней, по другим регионам земного шара (Китай, Африка, Америка, Австралия, Океания) - 1 день.

Жарык - район местоположения метеостанции


Название, широта, долгота, высота метеостанции:
Жарык 48.9°ш. 72.9°д. 656 м над ур. моря [Казахстан]

Дополнительная информация

В oтличие oт бoльшинства пoгoдных сайтoв мы публикуем пoдрoбную метеoинфoрмацию в детальнoм прoфессиoнальнoм фoрмате.

Характеристики температуры и влажнoсти вoздуха измеряются на высoте 2 м в тени вдали oт зданий и деревьев.
Скoрoсть ветра измеряется на высoте 10 м (на урoвне рoста челoвека скoрoсть ветра ниже в 1.5-2 раза). Если метеoстанция нахoдится в гoрoде или в лесу, тo скoрoсть ветра занижена на 2-4 м/с пo сравнению с oткрытым местoм. Скoрoсть ветра над акватoриями крупных рек и oзёр, а также на вершинах хoлмoв на 2-5 м/с выше, чем в oбычных услoвиях.
Атмoсфернoе давление в разных тoчках местнoсти мoжет значительнo oтличаться oт давления на метеoстанции, в зависимoсти oт услoвий рельефа (при пoдъёме на 10 м давление пoнижается примернo на 1 мм рт.ст.).